owner,sensor,date,latitude,longitude,air_temperature,qcFlag 
NDBC,ioos:station:NOAA.NDBC:SMKF1:1,2012-09-01T00:00:00Z,24.6280,-81.1120,27.2,1111122 
NDBC,ioos:station:NOAA.NDBC:SMKF1:1,2012-09-01T01:00:00Z,24.6280,-81.1120,25.5,1111122 
NDBC,ioos:station:NOAA.NDBC:SMKF1:1,2012-09-01T02:00:00Z,24.6280,-81.1120,25.2,1111122 
NDBC,ioos:station:NOAA.NDBC:SMKF1:1,2012-09-01T03:00:00Z,24.6280,-81.1120,24.6,1111122 
NDBC,ioos:station:NOAA.NDBC:SMKF1:1,2012-09-01T04:00:00Z,24.6280,-81.1120,24.5,1111122 
NDBC,ioos:station:NOAA.NDBC:SMKF1:1,2012-09-01T05:00:00Z,24.6280,-81.1120,24.8,1111122 
NDBC,ioos:station:NOAA.NDBC:SMKF1:1,2012-09-01T06:00:00Z,24.6280,-81.1120,24.7,1111122 
NDBC,ioos:station:NOAA.NDBC:SMKF1:1,2012-09-01T07:00:00Z,24.6280,-81.1120,24.5,1111122 
NDBC,ioos:station:NOAA.NDBC:SMKF1:1,2012-09-01T08:00:00Z,24.6280,-81.1120,24.5,1111122 
NDBC,ioos:station:NOAA.NDBC:SMKF1:1,2012-09-01T14:00:00Z,24.6280,-81.1120,27.6,1111122 
NDBC,ioos:station:NOAA.NDBC:SMKF1:1,2012-09-01T15:00:00Z,24.6280,-81.1120,27.6,1111122 
NDBC,ioos:station:NOAA.NDBC:SMKF1:1,2012-09-01T16:00:00Z,24.6280,-81.1120,27.7,1111122 
NDBC,ioos:station:NOAA.NDBC:SMKF1:1,2012-09-01T17:00:00Z,24.6280,-81.1120,27.8,1111122 
NDBC,ioos:station:NOAA.NDBC:SMKF1:1,2012-09-01T18:00:00Z,24.6280,-81.1120,28.3,1111122 
NDBC,ioos:station:NOAA.NDBC:SMKF1:1,2012-09-01T19:00:00Z,24.6280,-81.1120,28.7,1111122 
NDBC,ioos:station:NOAA.NDBC:SMKF1:1,2012-09-01T20:00:00Z,24.6280,-81.1120,29.1,1111122 
NDBC,ioos:station:NOAA.NDBC:SMKF1:1,2012-09-01T21:00:00Z,24.6280,-81.1120,29.1,1111122 
NDBC,ioos:station:NOAA.NDBC:SMKF1:1,2012-09-01T22:00:00Z,24.6280,-81.1120,29.2,1111122 
NDBC,ioos:station:NOAA.NDBC:SMKF1:1,2012-09-01T23:00:00Z,24.6280,-81.1120,29.5,1111122 
NDBC,ioos:station:NOAA.NDBC:SMKF1:1,2012-09-02T00:00:00Z,24.6280,-81.1120,28.9,1111122 
NDBC,ioos:station:NOAA.NDBC:SMKF1:1,2012-09-02T01:00:00Z,24.6280,-81.1120,26.6,1111122 
NDBC,ioos:station:NOAA.NDBC:SMKF1:1,2012-09-02T02:00:00Z,24.6280,-81.1120,27.8,1111122 
NDBC,ioos:station:NOAA.NDBC:SMKF1:1,2012-09-02T03:00:00Z,24.6280,-81.1120,26.9,1111122 
NDBC,ioos:station:NOAA.NDBC:SMKF1:1,2012-09-02T04:00:00Z,24.6280,-81.1120,28.3,1111122 
NDBC,ioos:station:NOAA.NDBC:SMKF1:1,2012-09-02T05:00:00Z,24.6280,-81.1120,26.4,1111122 
NDBC,ioos:station:NOAA.NDBC:SMKF1:1,2012-09-02T06:00:00Z,24.6280,-81.1120,25.7,1111122 
NDBC,ioos:station:NOAA.NDBC:SMKF1:1,2012-09-02T07:00:00Z,24.6280,-81.1120,25.1,1111122 
NDBC,ioos:station:NOAA.NDBC:SMKF1:1,2012-09-02T08:00:00Z,24.6280,-81.1120,24.7,1111122 
NDBC,ioos:station:NOAA.NDBC:SMKF1:1,2012-09-02T09:00:00Z,24.6280,-81.1120,24.3,1111122 
NDBC,ioos:station:NOAA.NDBC:SMKF1:1,2012-09-02T10:00:00Z,24.6280,-81.1120,24.2,1111122 
NDBC,ioos:station:NOAA.NDBC:SMKF1:1,2012-09-02T11:00:00Z,24.6280,-81.1120,24.0,1111122 
NDBC,ioos:station:NOAA.NDBC:SMKF1:1,2012-09-02T12:00:00Z,24.6280,-81.1120,24.2,1111122 
NDBC,ioos:station:NOAA.NDBC:SMKF1:1,2012-09-02T13:00:00Z,24.6280,-81.1120,26.0,1111122 
NDBC,ioos:station:NOAA.NDBC:SMKF1:1,2012-09-02T14:00:00Z,24.6280,-81.1120,28.6,1111122 
NDBC,ioos:station:NOAA.NDBC:SMKF1:1,2012-09-02T15:00:00Z,24.6280,-81.1120,27.7,1111122 
NDBC,ioos:station:NOAA.NDBC:SMKF1:1,2012-09-02T16:00:00Z,24.6280,-81.1120,28.2,1111122 
NDBC,ioos:station:NOAA.NDBC:SMKF1:1,2012-09-02T17:00:00Z,24.6280,-81.1120,28.2,1111122 
NDBC,ioos:station:NOAA.NDBC:SMKF1:1,2012-09-02T18:00:00Z,24.6280,-81.1120,28.4,1111122 
NDBC,ioos:station:NOAA.NDBC:SMKF1:1,2012-09-02T19:00:00Z,24.6280,-81.1120,28.8,1111122 
NDBC,ioos:station:NOAA.NDBC:SMKF1:1,2012-09-02T20:00:00Z,24.6280,-81.1120,28.8,1111122 
NDBC,ioos:station:NOAA.NDBC:SMKF1:1,2012-09-02T21:00:00Z,24.6280,-81.1120,29.0,1111122 
NDBC,ioos:station:NOAA.NDBC:SMKF1:1,2012-09-02T22:00:00Z,24.6280,-81.1120,29.1,1111122 
NDBC,ioos:station:NOAA.NDBC:SMKF1:1,2012-09-02T23:00:00Z,24.6280,-81.1120,29.1,1111122 
NDBC,ioos:station:NOAA.NDBC:SMKF1:1,2012-09-03T00:00:00Z,24.6280,-81.1120,29.0,1111122 
NDBC,ioos:station:NOAA.NDBC:SMKF1:1,2012-09-03T01:00:00Z,24.6280,-81.1120,28.8,1111122 
NDBC,ioos:station:NOAA.NDBC:SMKF1:1,2012-09-03T02:00:00Z,24.6280,-81.1120,28.6,1111122 
NDBC,ioos:station:NOAA.NDBC:SMKF1:1,2012-09-03T03:00:00Z,24.6280,-81.1120,28.8,1111122 
NDBC,ioos:station:NOAA.NDBC:SMKF1:1,2012-09-03T04:00:00Z,24.6280,-81.1120,28.6,1111122 
NDBC,ioos:station:NOAA.NDBC:SMKF1:1,2012-09-03T05:00:00Z,24.6280,-81.1120,28.9,1111122 
NDBC,ioos:station:NOAA.NDBC:SMKF1:1,2012-09-03T06:00:00Z,24.6280,-81.1120,28.5,1111122 
NDBC,ioos:station:NOAA.NDBC:SMKF1:1,2012-09-03T07:00:00Z,24.6280,-81.1120,28.2,1111122 
NDBC,ioos:station:NOAA.NDBC:SMKF1:1,2012-09-03T08:00:00Z,24.6280,-81.1120,28.1,1111122 
NDBC,ioos:station:NOAA.NDBC:SMKF1:1,2012-09-03T09:00:00Z,24.6280,-81.1120,25.1,1111122 
NDBC,ioos:station:NOAA.NDBC:SMKF1:1,2012-09-03T10:00:00Z,24.6280,-81.1120,24.8,1111122 
NDBC,ioos:station:NOAA.NDBC:SMKF1:1,2012-09-03T11:00:00Z,24.6280,-81.1120,24.9,1111122 
NDBC,ioos:station:NOAA.NDBC:SMKF1:1,2012-09-03T12:00:00Z,24.6280,-81.1120,25.1,1111122 
NDBC,ioos:station:NOAA.NDBC:SMKF1:1,2012-09-03T13:00:00Z,24.6280,-81.1120,26.5,1111122 
NDBC,ioos:station:NOAA.NDBC:SMKF1:1,2012-09-03T14:00:00Z,24.6280,-81.1120,28.3,1111122 
NDBC,ioos:station:NOAA.NDBC:SMKF1:1,2012-09-03T15:00:00Z,24.6280,-81.1120,27.9,1111122 
NDBC,ioos:station:NOAA.NDBC:SMKF1:1,2012-09-03T16:00:00Z,24.6280,-81.1120,27.3,1111122 
NDBC,ioos:station:NOAA.NDBC:SMKF1:1,2012-09-03T17:00:00Z,24.6280,-81.1120,28.3,1111122 
NDBC,ioos:station:NOAA.NDBC:SMKF1:1,2012-09-03T18:00:00Z,24.6280,-81.1120,28.1,1111122 
NDBC,ioos:station:NOAA.NDBC:SMKF1:1,2012-09-03T19:00:00Z,24.6280,-81.1120,28.7,1111122 
NDBC,ioos:station:NOAA.NDBC:SMKF1:1,2012-09-03T20:00:00Z,24.6280,-81.1120,28.8,1111122 
NDBC,ioos:station:NOAA.NDBC:SMKF1:1,2012-09-03T21:00:00Z,24.6280,-81.1120,28.8,1111122 
NDBC,ioos:station:NOAA.NDBC:SMKF1:1,2012-09-03T22:00:00Z,24.6280,-81.1120,28.9,1111122 
NDBC,ioos:station:NOAA.NDBC:SMKF1:1,2012-09-03T23:00:00Z,24.6280,-81.1120,28.8,1111122 
NDBC,ioos:station:NOAA.NDBC:SMKF1:1,2012-09-04T00:00:00Z,24.6280,-81.1120,28.6,1111122 
NDBC,ioos:station:NOAA.NDBC:SMKF1:1,2012-09-04T01:00:00Z,24.6280,-81.1120,28.5,1111122 
NDBC,ioos:station:NOAA.NDBC:SMKF1:1,2012-09-04T02:00:00Z,24.6280,-81.1120,28.5,1111122 
NDBC,ioos:station:NOAA.NDBC:SMKF1:1,2012-09-04T03:00:00Z,24.6280,-81.1120,28.5,1111122 
NDBC,ioos:station:NOAA.NDBC:SMKF1:1,2012-09-04T04:00:00Z,24.6280,-81.1120,28.4,1111122 
NDBC,ioos:station:NOAA.NDBC:SMKF1:1,2012-09-04T05:00:00Z,24.6280,-81.1120,28.5,1111122 
NDBC,ioos:station:NOAA.NDBC:SMKF1:1,2012-09-04T06:00:00Z,24.6280,-81.1120,28.3,1111122 
NDBC,ioos:station:NOAA.NDBC:SMKF1:1,2012-09-04T07:00:00Z,24.6280,-81.1120,28.3,1111122 
NDBC,ioos:station:NOAA.NDBC:SMKF1:1,2012-09-04T08:00:00Z,24.6280,-81.1120,28.2,1111122 
NDBC,ioos:station:NOAA.NDBC:SMKF1:1,2012-09-04T09:00:00Z,24.6280,-81.1120,28.1,1111122 
NDBC,ioos:station:NOAA.NDBC:SMKF1:1,2012-09-04T10:00:00Z,24.6280,-81.1120,28.1,1111122 
NDBC,ioos:station:NOAA.NDBC:SMKF1:1,2012-09-04T11:00:00Z,24.6280,-81.1120,28.1,1111122 
NDBC,ioos:station:NOAA.NDBC:SMKF1:1,2012-09-04T12:00:00Z,24.6280,-81.1120,28.2,1111122 
NDBC,ioos:station:NOAA.NDBC:SMKF1:1,2012-09-04T13:00:00Z,24.6280,-81.1120,28.3,1111122 
NDBC,ioos:station:NOAA.NDBC:SMKF1:1,2012-09-04T14:00:00Z,24.6280,-81.1120,28.3,1111122 
NDBC,ioos:station:NOAA.NDBC:SMKF1:1,2012-09-04T15:00:00Z,24.6280,-81.1120,28.4,1111122 
NDBC,ioos:station:NOAA.NDBC:SMKF1:1,2012-09-04T16:00:00Z,24.6280,-81.1120,28.5,1111122 
NDBC,ioos:station:NOAA.NDBC:SMKF1:1,2012-09-04T17:00:00Z,24.6280,-81.1120,28.6,1111122 
NDBC,ioos:station:NOAA.NDBC:SMKF1:1,2012-09-04T18:00:00Z,24.6280,-81.1120,28.7,1111122 
NDBC,ioos:station:NOAA.NDBC:SMKF1:1,2012-09-04T19:00:00Z,24.6280,-81.1120,28.7,1111122 
NDBC,ioos:station:NOAA.NDBC:SMKF1:1,2012-09-04T20:00:00Z,24.6280,-81.1120,28.5,1111122 
NDBC,ioos:station:NOAA.NDBC:SMKF1:1,2012-09-04T21:00:00Z,24.6280,-81.1120,27.9,1111122 
NDBC,ioos:station:NOAA.NDBC:SMKF1:1,2012-09-04T22:00:00Z,24.6280,-81.1120,27.6,1111122 
NDBC,ioos:station:NOAA.NDBC:SMKF1:1,2012-09-04T23:00:00Z,24.6280,-81.1120,27.8,1111122 
NDBC,ioos:station:NOAA.NDBC:SMKF1:1,2012-09-05T00:00:00Z,24.6280,-81.1120,27.6,1111122 
NDBC,ioos:station:NOAA.NDBC:SMKF1:1,2012-09-05T01:00:00Z,24.6280,-81.1120,27.6,1111122 
NDBC,ioos:station:NOAA.NDBC:SMKF1:1,2012-09-05T02:00:00Z,24.6280,-81.1120,27.8,1111122 
NDBC,ioos:station:NOAA.NDBC:SMKF1:1,2012-09-05T03:00:00Z,24.6280,-81.1120,27.9,1111122 
NDBC,ioos:station:NOAA.NDBC:SMKF1:1,2012-09-05T04:00:00Z,24.6280,-81.1120,27.9,1111122 
NDBC,ioos:station:NOAA.NDBC:SMKF1:1,2012-09-05T05:00:00Z,24.6280,-81.1120,27.9,1111122 
NDBC,ioos:station:NOAA.NDBC:SMKF1:1,2012-09-05T06:00:00Z,24.6280,-81.1120,28.0,1111122 
NDBC,ioos:station:NOAA.NDBC:SMKF1:1,2012-09-05T07:00:00Z,24.6280,-81.1120,26.0,1111122 
NDBC,ioos:station:NOAA.NDBC:SMKF1:1,2012-09-05T08:00:00Z,24.6280,-81.1120,28.1,1111122 
NDBC,ioos:station:NOAA.NDBC:SMKF1:1,2012-09-05T09:00:00Z,24.6280,-81.1120,27.5,1111122 
NDBC,ioos:station:NOAA.NDBC:SMKF1:1,2012-09-05T10:00:00Z,24.6280,-81.1120,28.1,1111122 
NDBC,ioos:station:NOAA.NDBC:SMKF1:1,2012-09-05T11:00:00Z,24.6280,-81.1120,27.0,1111122 
NDBC,ioos:station:NOAA.NDBC:SMKF1:1,2012-09-05T12:00:00Z,24.6280,-81.1120,27.1,1111122 
NDBC,ioos:station:NOAA.NDBC:SMKF1:1,2012-09-05T13:00:00Z,24.6280,-81.1120,27.5,1111122 
NDBC,ioos:station:NOAA.NDBC:SMKF1:1,2012-09-05T14:00:00Z,24.6280,-81.1120,25.7,1111122 
NDBC,ioos:station:NOAA.NDBC:SMKF1:1,2012-09-05T15:00:00Z,24.6280,-81.1120,28.2,1111122 
NDBC,ioos:station:NOAA.NDBC:SMKF1:1,2012-09-05T16:00:00Z,24.6280,-81.1120,28.3,1111122 
NDBC,ioos:station:NOAA.NDBC:SMKF1:1,2012-09-05T17:00:00Z,24.6280,-81.1120,28.4,1111122 
NDBC,ioos:station:NOAA.NDBC:SMKF1:1,2012-09-05T18:00:00Z,24.6280,-81.1120,28.3,1111122 
NDBC,ioos:station:NOAA.NDBC:SMKF1:1,2012-09-05T19:00:00Z,24.6280,-81.1120,28.4,1111122 
NDBC,ioos:station:NOAA.NDBC:SMKF1:1,2012-09-05T20:00:00Z,24.6280,-81.1120,28.5,1111122 
NDBC,ioos:station:NOAA.NDBC:SMKF1:1,2012-09-05T21:00:00Z,24.6280,-81.1120,28.4,1111122 
NDBC,ioos:station:NOAA.NDBC:SMKF1:1,2012-09-05T22:00:00Z,24.6280,-81.1120,28.3,1111122 
NDBC,ioos:station:NOAA.NDBC:SMKF1:1,2012-09-05T23:00:00Z,24.6280,-81.1120,28.2,1111122 
NDBC,ioos:station:NOAA.NDBC:SMKF1:1,2012-09-06T00:00:00Z,24.6280,-81.1120,27.6,1111122 
NDBC,ioos:station:NOAA.NDBC:SMKF1:1,2012-09-06T01:00:00Z,24.6280,-81.1120,27.7,1111122 
NDBC,ioos:station:NOAA.NDBC:SMKF1:1,2012-09-06T02:00:00Z,24.6280,-81.1120,28.4,1111122 
NDBC,ioos:station:NOAA.NDBC:SMKF1:1,2012-09-06T03:00:00Z,24.6280,-81.1120,28.1,1111122 
NDBC,ioos:station:NOAA.NDBC:SMKF1:1,2012-09-06T04:00:00Z,24.6280,-81.1120,28.1,1111122 
NDBC,ioos:station:NOAA.NDBC:SMKF1:1,2012-09-06T05:00:00Z,24.6280,-81.1120,28.1,1111122 
NDBC,ioos:station:NOAA.NDBC:SMKF1:1,2012-09-06T06:00:00Z,24.6280,-81.1120,28.2,1111122 
NDBC,ioos:station:NOAA.NDBC:SMKF1:1,2012-09-06T07:00:00Z,24.6280,-81.1120,28.2,1111122 
NDBC,ioos:station:NOAA.NDBC:SMKF1:1,2012-09-06T08:00:00Z,24.6280,-81.1120,28.0,1111122 
NDBC,ioos:station:NOAA.NDBC:SMKF1:1,2012-09-06T09:00:00Z,24.6280,-81.1120,28.0,1111122 
NDBC,ioos:station:NOAA.NDBC:SMKF1:1,2012-09-06T10:00:00Z,24.6280,-81.1120,28.0,1111122 
NDBC,ioos:station:NOAA.NDBC:SMKF1:1,2012-09-06T11:00:00Z,24.6280,-81.1120,28.0,1111122 
NDBC,ioos:station:NOAA.NDBC:SMKF1:1,2012-09-06T12:00:00Z,24.6280,-81.1120,24.3,1111122 
NDBC,ioos:station:NOAA.NDBC:SMKF1:1,2012-09-06T13:00:00Z,24.6280,-81.1120,28.1,1111122 
NDBC,ioos:station:NOAA.NDBC:SMKF1:1,2012-09-06T14:00:00Z,24.6280,-81.1120,27.9,1111122 
NDBC,ioos:station:NOAA.NDBC:SMKF1:1,2012-09-06T15:00:00Z,24.6280,-81.1120,28.1,1111122 
NDBC,ioos:station:NOAA.NDBC:SMKF1:1,2012-09-06T16:00:00Z,24.6280,-81.1120,28.5,1111122 
NDBC,ioos:station:NOAA.NDBC:SMKF1:1,2012-09-06T17:00:00Z,24.6280,-81.1120,28.6,1111122 
NDBC,ioos:station:NOAA.NDBC:SMKF1:1,2012-09-06T18:00:00Z,24.6280,-81.1120,28.8,1111122 
NDBC,ioos:station:NOAA.NDBC:SMKF1:1,2012-09-06T19:00:00Z,24.6280,-81.1120,28.6,1111122 
NDBC,ioos:station:NOAA.NDBC:SMKF1:1,2012-09-06T20:00:00Z,24.6280,-81.1120,28.9,1111122 
NDBC,ioos:station:NOAA.NDBC:SMKF1:1,2012-09-06T21:00:00Z,24.6280,-81.1120,28.9,1111122 
NDBC,ioos:station:NOAA.NDBC:SMKF1:1,2012-09-06T22:00:00Z,24.6280,-81.1120,28.7,1111122 
NDBC,ioos:station:NOAA.NDBC:SMKF1:1,2012-09-06T23:00:00Z,24.6280,-81.1120,28.5,1111122 
NDBC,ioos:station:NOAA.NDBC:SMKF1:1,2012-09-07T00:00:00Z,24.6280,-81.1120,28.4,1111122 
NDBC,ioos:station:NOAA.NDBC:SMKF1:1,2012-09-07T01:00:00Z,24.6280,-81.1120,28.4,1111122 
NDBC,ioos:station:NOAA.NDBC:SMKF1:1,2012-09-07T02:00:00Z,24.6280,-81.1120,28.4,1111122 
NDBC,ioos:station:NOAA.NDBC:SMKF1:1,2012-09-07T03:00:00Z,24.6280,-81.1120,28.4,1111122 
NDBC,ioos:station:NOAA.NDBC:SMKF1:1,2012-09-07T04:00:00Z,24.6280,-81.1120,28.3,1111122 
NDBC,ioos:station:NOAA.NDBC:SMKF1:1,2012-09-07T05:00:00Z,24.6280,-81.1120,28.2,1111122 
NDBC,ioos:station:NOAA.NDBC:SMKF1:1,2012-09-07T06:00:00Z,24.6280,-81.1120,28.3,1111122 
NDBC,ioos:station:NOAA.NDBC:SMKF1:1,2012-09-07T07:00:00Z,24.6280,-81.1120,28.1,1111122 
NDBC,ioos:station:NOAA.NDBC:SMKF1:1,2012-09-07T08:00:00Z,24.6280,-81.1120,28.0,1111122 
NDBC,ioos:station:NOAA.NDBC:SMKF1:1,2012-09-07T09:00:00Z,24.6280,-81.1120,24.4,1111122 
NDBC,ioos:station:NOAA.NDBC:SMKF1:1,2012-09-07T10:00:00Z,24.6280,-81.1120,24.2,1111122 
NDBC,ioos:station:NOAA.NDBC:SMKF1:1,2012-09-07T11:00:00Z,24.6280,-81.1120,26.6,1111122 
NDBC,ioos:station:NOAA.NDBC:SMKF1:1,2012-09-07T12:00:00Z,24.6280,-81.1120,24.4,1111122 
NDBC,ioos:station:NOAA.NDBC:SMKF1:1,2012-09-07T13:00:00Z,24.6280,-81.1120,26.8,1111122 
NDBC,ioos:station:NOAA.NDBC:SMKF1:1,2012-09-07T14:00:00Z,24.6280,-81.1120,25.5,1111122 
NDBC,ioos:station:NOAA.NDBC:SMKF1:1,2012-09-07T15:00:00Z,24.6280,-81.1120,26.2,1111122 
NDBC,ioos:station:NOAA.NDBC:SMKF1:1,2012-09-07T16:00:00Z,24.6280,-81.1120,27.3,1111122 
NDBC,ioos:station:NOAA.NDBC:SMKF1:1,2012-09-07T17:00:00Z,24.6280,-81.1120,28.5,1111122 
NDBC,ioos:station:NOAA.NDBC:SMKF1:1,2012-09-07T18:00:00Z,24.6280,-81.1120,28.0,1111122 
NDBC,ioos:station:NOAA.NDBC:SMKF1:1,2012-09-07T19:00:00Z,24.6280,-81.1120,28.7,1111122 
NDBC,ioos:station:NOAA.NDBC:SMKF1:1,2012-09-07T20:00:00Z,24.6280,-81.1120,28.8,1111122 
NDBC,ioos:station:NOAA.NDBC:SMKF1:1,2012-09-07T21:00:00Z,24.6280,-81.1120,28.5,1111122 
NDBC,ioos:station:NOAA.NDBC:SMKF1:1,2012-09-07T22:00:00Z,24.6280,-81.1120,28.8,1111122 
NDBC,ioos:station:NOAA.NDBC:SMKF1:1,2012-09-07T23:00:00Z,24.6280,-81.1120,28.3,1111122 
NDBC,ioos:station:NOAA.NDBC:SMKF1:1,2012-09-08T00:00:00Z,24.6280,-81.1120,28.2,1111122 
NDBC,ioos:station:NOAA.NDBC:SMKF1:1,2012-09-08T01:00:00Z,24.6280,-81.1120,28.1,1111122 
NDBC,ioos:station:NOAA.NDBC:SMKF1:1,2012-09-08T02:00:00Z,24.6280,-81.1120,28.0,1111122 
NDBC,ioos:station:NOAA.NDBC:SMKF1:1,2012-09-08T03:00:00Z,24.6280,-81.1120,28.1,1111122 
NDBC,ioos:station:NOAA.NDBC:SMKF1:1,2012-09-08T04:00:00Z,24.6280,-81.1120,28.1,1111122 
NDBC,ioos:station:NOAA.NDBC:SMKF1:1,2012-09-08T05:00:00Z,24.6280,-81.1120,28.2,1111122 
NDBC,ioos:station:NOAA.NDBC:SMKF1:1,2012-09-08T06:00:00Z,24.6280,-81.1120,28.2,1111122 
NDBC,ioos:station:NOAA.NDBC:SMKF1:1,2012-09-08T07:00:00Z,24.6280,-81.1120,28.2,1111122 
NDBC,ioos:station:NOAA.NDBC:SMKF1:1,2012-09-08T08:00:00Z,24.6280,-81.1120,28.3,1111122 
NDBC,ioos:station:NOAA.NDBC:SMKF1:1,2012-09-08T09:00:00Z,24.6280,-81.1120,28.3,1111122 
NDBC,ioos:station:NOAA.NDBC:SMKF1:1,2012-09-08T10:00:00Z,24.6280,-81.1120,28.4,1111122 
NDBC,ioos:station:NOAA.NDBC:SMKF1:1,2012-09-08T11:00:00Z,24.6280,-81.1120,27.4,1111122 
NDBC,ioos:station:NOAA.NDBC:SMKF1:1,2012-09-08T12:00:00Z,24.6280,-81.1120,28.4,1111122 
NDBC,ioos:station:NOAA.NDBC:SMKF1:1,2012-09-08T13:00:00Z,24.6280,-81.1120,28.4,1111122 
NDBC,ioos:station:NOAA.NDBC:SMKF1:1,2012-09-08T14:00:00Z,24.6280,-81.1120,28.4,1111122 
NDBC,ioos:station:NOAA.NDBC:SMKF1:1,2012-09-08T15:00:00Z,24.6280,-81.1120,28.8,1111122 
NDBC,ioos:station:NOAA.NDBC:SMKF1:1,2012-09-08T16:00:00Z,24.6280,-81.1120,28.8,1111122 
NDBC,ioos:station:NOAA.NDBC:SMKF1:1,2012-09-08T17:00:00Z,24.6280,-81.1120,28.9,1111122 
NDBC,ioos:station:NOAA.NDBC:SMKF1:1,2012-09-08T18:00:00Z,24.6280,-81.1120,28.0,1111122 
NDBC,ioos:station:NOAA.NDBC:SMKF1:1,2012-09-08T19:00:00Z,24.6280,-81.1120,29.0,1111122 
NDBC,ioos:station:NOAA.NDBC:SMKF1:1,2012-09-08T20:00:00Z,24.6280,-81.1120,27.5,1111122 
NDBC,ioos:station:NOAA.NDBC:SMKF1:1,2012-09-08T21:00:00Z,24.6280,-81.1120,27.5,1111122 
NDBC,ioos:station:NOAA.NDBC:SMKF1:1,2012-09-08T22:00:00Z,24.6280,-81.1120,27.6,1111122 
NDBC,ioos:station:NOAA.NDBC:SMKF1:1,2012-09-08T23:00:00Z,24.6280,-81.1120,28.0,1111122 
NDBC,ioos:station:NOAA.NDBC:SMKF1:1,2012-09-09T00:00:00Z,24.6280,-81.1120,28.5,1111122 
NDBC,ioos:station:NOAA.NDBC:SMKF1:1,2012-09-09T02:00:00Z,24.6280,-81.1120,28.0,1111122 
NDBC,ioos:station:NOAA.NDBC:SMKF1:1,2012-09-09T03:00:00Z,24.6280,-81.1120,27.4,1111122 
NDBC,ioos:station:NOAA.NDBC:SMKF1:1,2012-09-09T04:00:00Z,24.6280,-81.1120,27.6,1111122 
NDBC,ioos:station:NOAA.NDBC:SMKF1:1,2012-09-09T05:00:00Z,24.6280,-81.1120,26.3,1111122 
NDBC,ioos:station:NOAA.NDBC:SMKF1:1,2012-09-09T06:00:00Z,24.6280,-81.1120,24.5,1111122 
NDBC,ioos:station:NOAA.NDBC:SMKF1:1,2012-09-09T07:00:00Z,24.6280,-81.1120,24.6,1111122 
NDBC,ioos:station:NOAA.NDBC:SMKF1:1,2012-09-09T08:00:00Z,24.6280,-81.1120,24.5,1111122 
NDBC,ioos:station:NOAA.NDBC:SMKF1:1,2012-09-09T09:00:00Z,24.6280,-81.1120,25.5,1111122 
NDBC,ioos:station:NOAA.NDBC:SMKF1:1,2012-09-09T13:00:00Z,24.6280,-81.1120,24.8,1111122 
NDBC,ioos:station:NOAA.NDBC:SMKF1:1,2012-09-09T14:00:00Z,24.6280,-81.1120,25.6,1111122 
NDBC,ioos:station:NOAA.NDBC:SMKF1:1,2012-09-09T15:00:00Z,24.6280,-81.1120,26.3,1111122 
NDBC,ioos:station:NOAA.NDBC:SMKF1:1,2012-09-09T16:00:00Z,24.6280,-81.1120,26.9,1111122 
NDBC,ioos:station:NOAA.NDBC:SMKF1:1,2012-09-09T17:00:00Z,24.6280,-81.1120,27.0,1111122 
NDBC,ioos:station:NOAA.NDBC:SMKF1:1,2012-09-09T18:00:00Z,24.6280,-81.1120,26.7,1111122 
NDBC,ioos:station:NOAA.NDBC:SMKF1:1,2012-09-09T19:00:00Z,24.6280,-81.1120,27.0,1111122 
NDBC,ioos:station:NOAA.NDBC:SMKF1:1,2012-09-09T20:00:00Z,24.6280,-81.1120,27.3,1111122 
NDBC,ioos:station:NOAA.NDBC:SMKF1:1,2012-09-09T21:00:00Z,24.6280,-81.1120,27.6,1111122 
NDBC,ioos:station:NOAA.NDBC:SMKF1:1,2012-09-09T22:00:00Z,24.6280,-81.1120,27.6,1111122 
NDBC,ioos:station:NOAA.NDBC:SMKF1:1,2012-09-09T23:00:00Z,24.6280,-81.1120,27.5,1111122 
NDBC,ioos:station:NOAA.NDBC:SMKF1:1,2012-09-10T00:00:00Z,24.6280,-81.1120,27.4,1111122 
NDBC,ioos:station:NOAA.NDBC:SMKF1:1,2012-09-10T01:00:00Z,24.6280,-81.1120,27.5,1111122 
NDBC,ioos:station:NOAA.NDBC:SMKF1:1,2012-09-10T02:00:00Z,24.6280,-81.1120,26.2,1111122 
NDBC,ioos:station:NOAA.NDBC:SMKF1:1,2012-09-10T03:00:00Z,24.6280,-81.1120,24.6,1111122 
NDBC,ioos:station:NOAA.NDBC:SMKF1:1,2012-09-10T04:00:00Z,24.6280,-81.1120,23.3,1111122 
NDBC,ioos:station:NOAA.NDBC:SMKF1:1,2012-09-10T05:00:00Z,24.6280,-81.1120,22.2,1111122 
NDBC,ioos:station:NOAA.NDBC:SMKF1:1,2012-09-10T06:00:00Z,24.6280,-81.1120,21.2,1111122 
NDBC,ioos:station:NOAA.NDBC:SMKF1:1,2012-09-10T07:00:00Z,24.6280,-81.1120,20.6,1111122 
NDBC,ioos:station:NOAA.NDBC:SMKF1:1,2012-09-10T08:00:00Z,24.6280,-81.1120,20.9,1111122 
NDBC,ioos:station:NOAA.NDBC:SMKF1:1,2012-09-10T09:00:00Z,24.6280,-81.1120,20.0,1111122 
NDBC,ioos:station:NOAA.NDBC:SMKF1:1,2012-09-10T10:00:00Z,24.6280,-81.1120,19.6,1111122 
NDBC,ioos:station:NOAA.NDBC:SMKF1:1,2012-09-10T11:00:00Z,24.6280,-81.1120,19.2,1111122 
NDBC,ioos:station:NOAA.NDBC:SMKF1:1,2012-09-10T12:00:00Z,24.6280,-81.1120,19.9,1111122 
NDBC,ioos:station:NOAA.NDBC:SMKF1:1,2012-09-10T13:00:00Z,24.6280,-81.1120,22.6,1111122 
NDBC,ioos:station:NOAA.NDBC:SMKF1:1,2012-09-10T14:00:00Z,24.6280,-81.1120,24.7,1111122 
NDBC,ioos:station:NOAA.NDBC:SMKF1:1,2012-09-10T15:00:00Z,24.6280,-81.1120,26.0,1111122 
NDBC,ioos:station:NOAA.NDBC:SMKF1:1,2012-09-10T16:00:00Z,24.6280,-81.1120,27.0,1111122 
NDBC,ioos:station:NOAA.NDBC:SMKF1:1,2012-09-10T17:00:00Z,24.6280,-81.1120,28.0,1111122 
NDBC,ioos:station:NOAA.NDBC:SMKF1:1,2012-09-10T18:00:00Z,24.6280,-81.1120,28.6,1111122 
NDBC,ioos:station:NOAA.NDBC:SMKF1:1,2012-09-10T19:00:00Z,24.6280,-81.1120,29.2,1111122 
NDBC,ioos:station:NOAA.NDBC:SMKF1:1,2012-09-10T20:00:00Z,24.6280,-81.1120,28.8,1111122 
NDBC,ioos:station:NOAA.NDBC:SMKF1:1,2012-09-10T21:00:00Z,24.6280,-81.1120,29.6,1111122 
NDBC,ioos:station:NOAA.NDBC:SMKF1:1,2012-09-10T22:00:00Z,24.6280,-81.1120,29.2,1111122 
NDBC,ioos:station:NOAA.NDBC:SMKF1:1,2012-09-10T23:00:00Z,24.6280,-81.1120,28.4,1111122 
NDBC,ioos:station:NOAA.NDBC:SMKF1:1,2012-09-11T00:00:00Z,24.6280,-81.1120,26.6,1111122 
NDBC,ioos:station:NOAA.NDBC:SMKF1:1,2012-09-11T01:00:00Z,24.6280,-81.1120,24.8,1111122 
NDBC,ioos:station:NOAA.NDBC:SMKF1:1,2012-09-11T02:00:00Z,24.6280,-81.1120,24.1,1111122 
NDBC,ioos:station:NOAA.NDBC:SMKF1:1,2012-09-11T03:00:00Z,24.6280,-81.1120,23.6,1111122 
NDBC,ioos:station:NOAA.NDBC:SMKF1:1,2012-09-11T04:00:00Z,24.6280,-81.1120,22.7,1111122 
NDBC,ioos:station:NOAA.NDBC:SMKF1:1,2012-09-11T05:00:00Z,24.6280,-81.1120,22.0,1111122 
NDBC,ioos:station:NOAA.NDBC:SMKF1:1,2012-09-11T06:00:00Z,24.6280,-81.1120,21.8,1111122 
NDBC,ioos:station:NOAA.NDBC:SMKF1:1,2012-09-11T07:00:00Z,24.6280,-81.1120,21.6,1111122 
NDBC,ioos:station:NOAA.NDBC:SMKF1:1,2012-09-11T08:00:00Z,24.6280,-81.1120,21.6,1111122 
NDBC,ioos:station:NOAA.NDBC:SMKF1:1,2012-09-11T09:00:00Z,24.6280,-81.1120,21.7,1111122 
NDBC,ioos:station:NOAA.NDBC:SMKF1:1,2012-09-11T10:00:00Z,24.6280,-81.1120,21.9,1111122 
NDBC,ioos:station:NOAA.NDBC:SMKF1:1,2012-09-11T11:00:00Z,24.6280,-81.1120,21.6,1111122 
NDBC,ioos:station:NOAA.NDBC:SMKF1:1,2012-09-11T12:00:00Z,24.6280,-81.1120,21.6,1111122 
NDBC,ioos:station:NOAA.NDBC:SMKF1:1,2012-09-11T13:00:00Z,24.6280,-81.1120,22.8,1111122 
NDBC,ioos:station:NOAA.NDBC:SMKF1:1,2012-09-11T14:00:00Z,24.6280,-81.1120,23.5,1111122 
NDBC,ioos:station:NOAA.NDBC:SMKF1:1,2012-09-11T15:00:00Z,24.6280,-81.1120,25.0,1111122 
NDBC,ioos:station:NOAA.NDBC:SMKF1:1,2012-09-11T16:00:00Z,24.6280,-81.1120,26.0,1111122 
NDBC,ioos:station:NOAA.NDBC:SMKF1:1,2012-09-11T17:00:00Z,24.6280,-81.1120,26.9,1111122 
NDBC,ioos:station:NOAA.NDBC:SMKF1:1,2012-09-11T18:00:00Z,24.6280,-81.1120,27.5,1111122 
NDBC,ioos:station:NOAA.NDBC:SMKF1:1,2012-09-11T19:00:00Z,24.6280,-81.1120,28.1,1111122 
NDBC,ioos:station:NOAA.NDBC:SMKF1:1,2012-09-11T20:00:00Z,24.6280,-81.1120,28.3,1111122 
NDBC,ioos:station:NOAA.NDBC:SMKF1:1,2012-09-11T21:00:00Z,24.6280,-81.1120,28.5,1111122 
NDBC,ioos:station:NOAA.NDBC:SMKF1:1,2012-09-11T22:00:00Z,24.6280,-81.1120,28.1,1111122 
NDBC,ioos:station:NOAA.NDBC:SMKF1:1,2012-09-12T01:00:00Z,24.6280,-81.1120,25.5,1111122 
NDBC,ioos:station:NOAA.NDBC:SMKF1:1,2012-09-12T02:00:00Z,24.6280,-81.1120,24.7,1111122 
NDBC,ioos:station:NOAA.NDBC:SMKF1:1,2012-09-12T03:00:00Z,24.6280,-81.1120,23.1,1111122 
NDBC,ioos:station:NOAA.NDBC:SMKF1:1,2012-09-12T04:00:00Z,24.6280,-81.1120,22.5,1111122 
NDBC,ioos:station:NOAA.NDBC:SMKF1:1,2012-09-12T05:00:00Z,24.6280,-81.1120,22.0,1111122 
NDBC,ioos:station:NOAA.NDBC:SMKF1:1,2012-09-12T06:00:00Z,24.6280,-81.1120,21.8,1111122 
NDBC,ioos:station:NOAA.NDBC:SMKF1:1,2012-09-12T07:00:00Z,24.6280,-81.1120,21.2,1111122 
NDBC,ioos:station:NOAA.NDBC:SMKF1:1,2012-09-12T08:00:00Z,24.6280,-81.1120,21.2,1111122 
NDBC,ioos:station:NOAA.NDBC:SMKF1:1,2012-09-12T09:00:00Z,24.6280,-81.1120,21.8,1111122 
NDBC,ioos:station:NOAA.NDBC:SMKF1:1,2012-09-12T10:00:00Z,24.6280,-81.1120,22.0,1111122 
NDBC,ioos:station:NOAA.NDBC:SMKF1:1,2012-09-12T11:00:00Z,24.6280,-81.1120,21.9,1111122 
NDBC,ioos:station:NOAA.NDBC:SMKF1:1,2012-09-12T12:00:00Z,24.6280,-81.1120,22.0,1111122 
NDBC,ioos:station:NOAA.NDBC:SMKF1:1,2012-09-12T13:00:00Z,24.6280,-81.1120,23.3,1111122 
NDBC,ioos:station:NOAA.NDBC:SMKF1:1,2012-09-12T14:00:00Z,24.6280,-81.1120,24.8,1111122 
NDBC,ioos:station:NOAA.NDBC:SMKF1:1,2012-09-12T15:00:00Z,24.6280,-81.1120,26.2,1111122 
NDBC,ioos:station:NOAA.NDBC:SMKF1:1,2012-09-12T16:00:00Z,24.6280,-81.1120,27.2,1111122 
NDBC,ioos:station:NOAA.NDBC:SMKF1:1,2012-09-12T17:00:00Z,24.6280,-81.1120,28.1,1111122 
NDBC,ioos:station:NOAA.NDBC:SMKF1:1,2012-09-12T18:00:00Z,24.6280,-81.1120,28.3,1111122 